Location: G�ndlingen
(48.0142°N, 7.6396°E)
Time: 08:09:02
(UTC+00:00)

IRIDIUM 104 - Pass Details

Date: 05 July 2020
Orbit: 776 x 779 km, 86.4° (Epoch: 04 August)

Event Time Altitude Azimuth Distance (km) Brightness Sun altitude
Exits shadow 23:23:20 35° 200° (SSW) 1,242 4.9 -19.3°
Maximum altitude 23:25:33 70° 275° (W) 829 4.4 -19.3°
Drops below altitude 10° 23:30:47 10° 360° (N) 2,343 8.1 -19.3°
Sets 23:33:10 0° 2° (N) 3,275 9.2 -19.3°
